Location: Elbart
(49.6135°N, 11.9134°E)
Time: 19:44:44
(UTC+00:00)

SPOT 5 - Pass Details

Date: 09 April 2020
Orbit: 624 x 814 km, 98.3° (Epoch: 03 June)

Event Time Altitude Azimuth Distance (km) Brightness Sun altitude
Exits shadow 20:31:35 61° 83° (E) 716 2.6 -22.4°
Maximum altitude 20:31:44 61° 72° (ENE) 713 2.6 -22.5°
Drops below altitude 10° 20:36:02 10° 352° (N) 2,012 5.9 -22.9°
Sets 20:38:15 0° 349° (N) 2,933 7.0 -23.2°
